Location: Church Tower
(37.7144°N, 119.6316°W)
Time: 19:50:54
(UTC+00:00)

Cosmos 407 Rocket - Pass Details

Date: 15 November 2025
Orbit: 740 x 780 km, 74.0° (Epoch: 08 December)

Event Time Altitude Azimuth Distance (km) Brightness Sun altitude
Exits shadow 12:13:54 39° 165° (SSE) 1,106 4.4 -28.7°
Drops below altitude 10° 12:17:03 10° 164° (SSE) 2,251 6.1 -28.1°
Sets 12:19:24 0° 164° (SSE) 3,176 6.9 -27.6°
